Wind_Speed
14 13 13 13 13 12 13 14 13 12 10 9 8 5 3 2 3 3 4 3 4 4 4 4 4 4 3 3 4 4 4 4 4 5 5 5 6 6 7 7 7 7 7 7 7 7 6 6 5
15 14 14 14 14 14 14 15 14 13 12 11 9 5 2 2 2 4 3 3 4 5 5 5 6 5 4 3 3 2 2 2 3 4 4 5 6 6 6 7 7 7 7 7 6 7 6 6 5
16 15 15 15 16 16 16 16 15 14 13 13 11 7 5 3 3 3 3 4 4 6 7 7 7 6 5 4 2 1 0 1 2 3 4 5 5 6 7 7 7 7 7 7 6 6 6 6 5
16 16 16 16 18 18 17 17 16 16 15 15 14 11 8 5 4 4 4 5 6 7 9 8 7 6 6 4 3 2 1 1 2 3 4 5 6 6 7 8 8 8 7 7 7 7 7 6 5
16 16 17 18 19 19 19 19 18 17 16 15 14 12 10 6 6 5 6 7 8 9 10 10 8 7 6 5 4 3 2 2 3 3 5 6 7 8 9 9 9 9 9 8 8 7 7 7 6
16 16 17 18 20 20 20 20 20 20 19 17 16 15 11 9 9 8 9 10 11 12 11 11 10 8 7 7 6 5 4 3 3 4 6 7 9 10 10 11 11 11 10 10 10 9 8 8 7
16 16 17 19 20 21 21 21 21 22 22 20 18 17 14 12 11 11 11 12 13 13 13 13 11 10 9 8 7 5 4 4 4 5 6 8 9 11 11 12 12 12 12 12 12 11 10 9 9
16 16 17 18 20 22 22 23 23 23 23 21 20 18 16 14 14 13 13 13 14 14 14 13 12 11 9 8 7 6 6 6 6 7 8 9 11 12 13 13 13 14 14 14 13 12 11 10 10
16 16 16 18 20 22 22 23 23 23 23 23 22 21 18 16 15 15 15 15 15 15 15 14 12 12 11 9 8 8 7 7 8 9 9 10 12 12 14 14 14 15 15 14 14 13 12 12 11
15 15 16 17 18 20 21 22 23 24 24 24 24 23 22 19 18 17 17 17 17 16 16 16 14 13 12 10 9 8 8 8 8 9 9 10 12 12 13 14 15 15 15 14 14 13 13 13 12
13 14 14 15 16 17 18 20 21 22 23 22 22 22 21 20 19 18 18 19 19 18 18 16 16 14 13 11 9 9 9 9 9 10 10 10 11 12 12 13 14 14 15 14 13 14 13 13 13
12 12 12 13 14 15 16 17 19 21 21 20 19 18 18 17 17 18 18 18 19 18 18 17 16 15 14 12 11 10 10 10 10 10 11 11 11 11 11 12 13 13 13 12 12 12 13 12 12
11 11 11 13 14 14 16 18 19 20 19 19 19 18 17 17 17 17 18 18 19 19 19 18 17 16 14 12 12 10 10 10 10 11 10 10 10 10 11 12 12 13 12 12 12 12 13 13 13
11 11 12 13 13 15 16 17 19 18 18 18 17 16 15 15 16 17 16 16 17 18 20 19 19 18 15 13 12 12 11 11 11 10 10 10 10 10 11 11 12 13 12 13 13 14 14 14 14
11 11 13 14 14 15 17 17 17 17 16 14 13 13 14 13 14 15 15 16 17 19 21 20 18 17 15 13 12 11 10 11 10 10 10 9 9 10 10 11 12 13 13 13 14 14 15 16 16
11 12 13 13 14 15 17 17 17 15 13 10 9 9 10 9 11 12 13 14 15 17 19 18 16 15 13 11 10 9 9 9 9 8 8 8 9 10 11 12 13 13 14 14 14 15 15 16 16
11 12 12 13 14 15 16 17 15 13 11 8 6 6 8 9 10 11 11 12 13 15 15 16 15 13 12 10 9 8 7 7 7 7 8 9 10 11 11 12 13 14 14 15 15 16 16 16 16
11 11 12 12 13 14 15 15 13 10 8 6 3 5 6 8 9 11 11 12 14 14 14 14 14 13 11 9 8 7 6 5 5 7 8 9 10 10 11 12 13 14 14 15 15 15 16 16 17
10 11 12 12 13 14 14 13 11 8 6 3 1 4 6 6 8 10 12 13 14 13 14 14 13 12 10 9 7 6 5 5 5 6 7 8 9 10 11 12 13 13 14 14 15 15 16 16 17
10 11 12 12 13 13 12 11 11 7 4 1 2 5 6 6 8 10 12 12 13 11 12 11 11 11 9 7 6 5 5 5 5 6 6 7 8 9 10 11 11 12 13 14 15 15 16 16 17
9 10 11 11 11 11 10 10 10 8 5 3 3 4 6 7 9 10 12 13 12 10 10 9 10 8 7 6 5 4 4 4 4 4 5 6 7 8 9 10 11 12 13 14 15 15 16 16 17
9 9 10 10 10 10 9 9 8 7 6 5 3 4 5 6 9 10 11 12 11 9 9 8 8 7 7 6 5 4 3 3 3 4 5 6 7 8 9 10 11 12 13 14 14 15 16 16 17
10 10 10 10 10 9 8 7 7 7 6 4 3 4 5 7 9 11 11 11 10 9 8 8 7 6 6 5 5 4 3 3 3 3 4 5 6 7 9 10 11 12 13 14 15 15 16 17 18
9 9 9 9 9 9 8 7 6 6 5 4 4 4 5 7 9 9 9 9 9 8 7 7 6 6 6 5 4 3 3 3 3 3 4 5 6 8 10 11 12 13 14 15 16 17 18 18 19
9 9 9 9 9 8 7 6 6 5 4 3 3 4 4 6 7 8 8 8 8 8 8 7 7 7 6 5 4 3 3 3 3 3 4 5 7 8 10 12 13 14 15 16 18 19 20 20 20
9 10 10 10 9 8 7 6 6 5 4 2 1 1 2 4 5 6 7 7 8 8 8 8 7 7 6 5 4 4 3 3 3 4 5 6 7 9 11 13 14 15 17 18 20 21 22 22 23
11 10 10 10 9 8 7 6 6 6 4 3 2 2 2 3 5 6 7 7 8 8 8 7 7 7 6 5 5 4 4 4 4 5 6 7 9 11 12 14 16 18 19 21 22 23 23 24 25
12 11 11 11 11 10 8 7 7 6 5 5 4 4 4 5 6 6 7 7 8 8 8 8 8 7 6 6 6 5 5 5 6 7 8 9 11 13 14 16 18 20 21 22 24 24 25 26 27
14 13 12 12 12 12 9 7 8 7 6 6 6 6 6 7 8 8 8 9 9 9 9 9 9 8 8 8 8 7 7 8 8 9 11 12 13 15 17 18 20 22 23 25 26 26 26 27 28
16 15 15 14 14 13 12 7 9 9 9 9 9 8 8 8 9 10 9 10 10 10 10 10 10 9 9 9 9 9 10 11 12 12 13 15 16 17 19 21 22 23 25 26 27 28 28 29 30
Wind_Direction
311 310 308 304 298 293 289 291 296 303 299 294 289 297 258 237 213 195 195 224 242 248 243 233 214 206 187 153 128 111 87 66 53 44 35 25 16 10 9 10 10 11 12 14 16 18 19 21 24
308 307 305 300 293 288 286 289 293 300 303 296 290 295 273 239 197 169 190 227 246 251 245 231 220 215 209 187 155 127 86 50 34 25 17 7 2 359 355 356 358 0 2 4 5 8 10 12 14
305 304 299 296 290 288 287 287 290 296 300 301 302 300 294 269 237 203 223 242 255 250 244 237 229 220 217 207 194 181 116 9 3 2 359 351 348 345 343 340 342 344 347 349 349 352 356 357 358
303 300 296 292 289 288 287 287 289 291 295 298 301 302 301 282 265 241 232 245 251 247 242 238 229 221 217 211 208 218 248 288 313 330 335 333 331 330 329 329 328 329 333 337 337 335 335 335 333
302 298 293 289 287 285 285 287 290 290 292 292 292 294 293 278 260 257 242 245 248 246 241 234 226 223 220 217 220 228 244 267 290 309 314 314 315 317 317 317 318 317 319 321 322 322 324 321 320
299 295 288 286 285 284 283 284 285 286 289 289 288 289 287 278 268 260 251 244 246 244 241 234 225 220 221 222 225 233 245 261 281 297 306 309 309 309 309 308 307 308 310 309 309 307 308 307 305
298 295 288 287 286 285 284 284 282 284 286 285 285 283 281 276 268 258 253 244 245 242 240 236 226 220 222 223 227 235 242 257 275 290 301 302 304 304 305 306 306 306 305 302 301 302 297 295 294
299 294 289 287 286 286 285 285 285 285 286 286 283 280 279 278 266 249 247 243 239 240 236 231 224 220 220 225 231 239 244 256 273 287 297 300 300 299 300 302 301 302 302 299 294 292 293 289 288
304 295 291 288 286 286 286 286 288 289 287 285 285 281 278 275 263 248 246 241 239 238 229 226 225 224 222 226 234 242 248 261 276 287 293 296 298 298 298 297 297 297 298 296 292 289 288 288 282
306 301 297 293 289 286 287 289 289 289 287 286 285 281 279 272 260 249 242 234 228 224 225 224 224 225 224 227 234 244 252 265 278 287 291 294 296 296 297 297 297 296 297 293 290 288 286 286 282
312 305 303 299 296 293 292 292 292 290 287 286 284 280 276 267 256 245 237 231 227 222 220 219 222 223 221 226 232 243 251 263 274 281 286 291 296 296 297 297 295 296 298 294 291 288 284 283 281
315 311 307 305 305 303 299 298 296 292 287 283 281 280 269 261 246 240 237 230 227 219 214 217 218 218 220 226 231 239 249 260 270 278 284 289 290 291 294 297 296 296 297 295 293 291 285 286 283
315 316 316 316 315 310 307 306 301 296 289 283 280 277 271 258 241 234 229 227 222 216 214 214 212 213 221 226 228 238 246 257 268 276 284 287 286 287 291 297 296 297 295 294 294 290 286 286 283
321 322 322 320 317 315 314 312 307 301 294 286 279 273 266 256 241 232 227 227 222 214 213 214 214 214 219 222 228 237 248 259 268 275 281 286 287 288 294 297 299 298 295 295 295 293 290 289 287
326 325 322 320 317 316 318 318 312 307 303 292 275 262 259 248 235 224 225 227 218 211 210 210 207 212 216 221 229 235 247 257 264 273 282 284 286 288 293 296 297 297 296 295 295 293 292 289 286
327 328 325 323 322 321 322 323 320 315 312 299 272 253 244 230 220 219 220 220 213 212 205 198 201 210 213 217 220 230 246 254 264 272 278 282 285 286 290 294 296 298 298 297 297 296 294 291 288
325 327 326 321 324 324 326 329 326 320 315 305 269 229 223 215 213 210 208 208 204 199 192 187 193 197 199 206 213 225 243 251 261 269 276 284 288 288 290 293 295 297 298 298 298 296 294 293 290
326 331 333 326 327 328 331 334 330 322 318 311 271 217 201 198 195 196 193 190 184 183 181 182 185 185 195 205 214 224 237 248 261 271 279 285 288 292 293 296 300 301 302 302 301 298 297 295 293
324 329 331 330 328 332 338 342 341 339 328 313 226 181 176 182 182 185 187 186 182 180 180 182 185 190 200 207 216 222 236 254 264 274 283 289 297 300 300 302 303 304 305 306 305 303 300 297 295
323 325 330 331 333 337 347 352 358 0 1 19 140 161 168 168 169 173 174 176 179 176 177 179 190 195 202 203 205 219 241 260 276 287 297 305 308 309 310 309 308 309 309 309 308 306 304 300 297
325 328 330 332 336 341 352 1 12 23 35 61 108 149 157 157 157 157 163 166 166 167 178 184 189 191 192 196 205 219 242 267 282 292 302 306 310 316 317 315 315 316 316 315 312 310 308 305 302
327 326 325 330 331 337 349 5 18 21 32 50 89 125 142 156 163 163 164 164 166 172 173 176 180 187 193 198 206 219 240 262 282 294 300 307 314 319 321 320 320 320 320 320 317 314 311 308 305
321 323 322 325 327 328 337 351 9 11 22 44 85 123 138 148 154 159 164 167 171 171 170 172 179 183 188 191 200 212 230 255 277 292 307 315 321 324 325 324 324 323 322 322 320 319 317 314 310
312 313 315 318 320 322 327 338 358 8 21 48 87 113 137 151 154 156 161 167 169 171 174 172 172 175 178 186 194 208 230 246 266 295 313 320 324 328 331 331 329 329 328 326 323 320 317 314 312
301 303 306 308 310 312 318 326 345 354 7 35 73 100 131 152 160 166 171 175 174 174 177 176 177 181 187 194 199 211 229 244 267 293 310 321 327 331 334 335 334 334 332 330 327 324 320 316 313
290 293 300 303 303 304 303 315 328 334 333 337 19 88 138 161 170 175 179 181 181 183 184 185 186 189 193 195 200 212 233 253 274 294 310 319 324 328 331 332 333 333 331 329 328 325 322 318 315
285 287 290 295 293 294 296 299 306 312 302 295 281 262 221 195 189 191 193 193 194 196 196 196 196 197 200 206 214 225 241 262 280 295 307 314 319 322 325 327 326 326 326 326 325 324 322 320 318
278 283 285 283 286 288 287 290 293 298 292 278 278 269 249 233 220 213 210 209 209 209 208 208 210 212 217 224 230 238 253 268 279 291 301 308 312 316 319 321 322 322 322 322 322 322 321 319 318
272 277 280 277 281 289 288 280 275 280 281 278 275 265 254 244 236 229 224 221 220 220 219 220 221 223 227 234 241 249 261 271 279 288 296 301 305 309 312 315 317 319 320 320 319 320 319 319 318
271 273 273 275 276 278 281 280 267 266 270 270 268 263 255 250 246 241 236 231 228 227 227 229 231 234 237 243 251 261 268 274 280 287 293 298 302 306 308 311 314 315 317 318 318 318 317 316 316
Height
5897 5896 5895 5895 5895 5894 5891 5890 5889 5889 5888 5889 5888 5887 5887 5886 5888 5891 5890 5890 5891 5892 5893 5893 5894 5894 5894 5894 5895 5895 5896 5897 5897 5898 5898 5899 5899 5899 5899 5899 5898 5898 5898 5898 5898 5898 5897 5897 5897
5895 5894 5894 5893 5892 5891 5890 5889 5888 5888 5888 5887 5886 5886 5885 5885 5885 5887 5887 5889 5890 5891 5892 5892 5893 5893 5894 5894 5895 5895 5896 5896 5897 5897 5897 5898 5898 5898 5898 5898 5898 5898 5898 5898 5898 5898 5897 5897 5897
5893 5892 5892 5891 5889 5888 5888 5887 5887 5887 5886 5885 5884 5885 5884 5884 5884 5885 5887 5888 5889 5890 5891 5891 5891 5892 5893 5893 5894 5895 5895 5896 5896 5897 5897 5897 5897 5897 5897 5897 5897 5897 5898 5898 5897 5897 5897 5897 5897
5891 5891 5890 5889 5887 5886 5886 5885 5885 5885 5885 5884 5883 5884 5883 5883 5883 5884 5885 5886 5888 5889 5890 5890 5891 5891 5892 5892 5893 5894 5895 5895 5896 5896 5896 5896 5897 5896 5896 5896 5896 5896 5897 5897 5897 5897 5896 5897 5897
5889 5888 5887 5885 5884 5883 5883 5883 5883 5883 5883 5882 5882 5882 5881 5882 5882 5883 5884 5885 5886 5888 5888 5889 5890 5890 5891 5892 5892 5893 5894 5894 5895 5895 5895 5895 5895 5895 5895 5895 5895 5895 5895 5895 5895 5895 5895 5895 5896
5887 5886 5884 5882 5881 5881 5880 5880 5879 5880 5880 5880 5880 5880 5879 5880 5881 5882 5883 5884 5885 5886 5887 5888 5888 5889 5890 5890 5891 5892 5893 5894 5894 5894 5894 5894 5894 5894 5893 5893 5893 5893 5893 5893 5894 5894 5894 5894 5894
5884 5883 5881 5880 5879 5878 5878 5877 5876 5876 5876 5877 5877 5877 5877 5877 5878 5879 5880 5882 5883 5884 5885 5886 5887 5888 5889 5890 5890 5891 5892 5892 5893 5893 5893 5893 5893 5892 5892 5891 5891 5891 5891 5891 5891 5892 5892 5892 5892
5881 5881 5879 5877 5876 5875 5874 5873 5873 5873 5872 5873 5873 5873 5873 5874 5875 5876 5877 5879 5881 5882 5882 5884 5885 5886 5887 5888 5889 5890 5891 5891 5892 5892 5891 5891 5891 5890 5890 5890 5889 5889 5889 5889 5889 5889 5889 5889 5890
5879 5879 5876 5875 5874 5872 5871 5870 5869 5868 5868 5868 5868 5869 5869 5870 5871 5873 5874 5876 5877 5878 5880 5882 5883 5884 5885 5886 5887 5888 5889 5890 5890 5890 5889 5889 5889 5888 5888 5887 5887 5886 5886 5886 5886 5886 5886 5887 5887
5877 5875 5874 5873 5871 5870 5868 5867 5865 5864 5863 5863 5863 5863 5863 5864 5866 5868 5870 5872 5874 5876 5878 5879 5881 5882 5883 5884 5886 5887 5887 5888 5888 5888 5887 5887 5887 5886 5886 5885 5885 5884 5883 5883 5883 5883 5884 5884 5884
5874 5873 5872 5870 5869 5867 5865 5864 5862 5860 5859 5858 5857 5857 5857 5858 5860 5863 5865 5868 5870 5873 5875 5877 5878 5879 5881 5882 5883 5884 5885 5885 5886 5886 5885 5885 5885 5884 5884 5883 5882 5882 5881 5881 5881 5881 5881 5881 5882
5873 5871 5870 5868 5867 5865 5863 5861 5858 5856 5855 5854 5853 5852 5852 5853 5855 5858 5861 5863 5865 5868 5871 5873 5875 5877 5878 5880 5881 5882 5882 5883 5883 5883 5883 5883 5883 5883 5882 5881 5880 5880 5879 5879 5878 5878 5879 5879 5880
5872 5870 5868 5866 5864 5862 5860 5858 5855 5852 5850 5849 5848 5847 5846 5848 5850 5852 5855 5858 5861 5864 5867 5870 5872 5874 5876 5877 5878 5879 5880 5881 5881 5881 5881 5881 5881 5881 5880 5880 5879 5878 5878 5877 5877 5876 5876 5877 5877
5871 5868 5867 5864 5862 5860 5857 5854 5851 5848 5846 5844 5843 5843 5842 5842 5844 5847 5850 5853 5857 5860 5863 5866 5869 5871 5873 5874 5875 5876 5877 5878 5879 5879 5879 5879 5879 5879 5879 5878 5877 5877 5876 5875 5875 5874 5874 5874 5874
5869 5867 5865 5863 5860 5857 5855 5852 5848 5845 5842 5840 5839 5838 5838 5838 5840 5843 5846 5849 5853 5856 5859 5862 5865 5868 5870 5871 5872 5874 5875 5876 5876 5877 5877 5877 5877 5877 5877 5876 5876 5875 5874 5873 5873 5872 5872 5871 5871
5868 5866 5864 5861 5858 5855 5853 5849 5845 5841 5839 5837 5836 5835 5836 5836 5838 5841 5844 5848 5851 5853 5856 5858 5862 5865 5868 5869 5871 5872 5873 5874 5874 5875 5875 5875 5875 5875 5875 5874 5873 5873 5872 5871 5871 5870 5869 5868 5868
5867 5865 5862 5860 5856 5853 5850 5846 5843 5839 5836 5835 5833 5834 5834 5835 5836 5839 5842 5846 5848 5851 5853 5857 5860 5863 5866 5868 5869 5870 5871 5872 5873 5873 5873 5873 5873 5873 5872 5872 5871 5870 5869 5869 5868 5867 5866 5866 5865
5867 5864 5861 5858 5855 5852 5848 5844 5840 5837 5835 5833 5832 5833 5834 5834 5835 5837 5840 5843 5847 5849 5852 5856 5858 5862 5864 5866 5868 5869 5870 5870 5871 5871 5871 5871 5871 5871 5870 5869 5868 5868 5867 5866 5865 5864 5863 5862 5861
5865 5862 5860 5857 5853 5851 5847 5843 5840 5836 5834 5833 5833 5833 5833 5834 5835 5836 5838 5842 5845 5848 5851 5854 5858 5861 5863 5865 5866 5867 5868 5869 5869 5869 5869 5869 5869 5868 5868 5867 5866 5865 5865 5863 5862 5861 5860 5859 5858
5863 5861 5858 5856 5853 5850 5847 5844 5840 5836 5835 5834 5833 5833 5834 5834 5835 5837 5839 5842 5845 5848 5850 5853 5857 5859 5862 5863 5865 5866 5867 5868 5868 5868 5867 5867 5867 5866 5865 5865 5864 5863 5862 5861 5859 5858 5857 5855 5855
5861 5859 5857 5855 5852 5850 5847 5845 5841 5839 5837 5835 5834 5834 5834 5835 5836 5837 5840 5843 5845 5848 5851 5853 5856 5858 5860 5861 5863 5864 5865 5866 5866 5866 5865 5865 5865 5864 5863 5863 5862 5861 5859 5858 5856 5855 5853 5852 5851
5860 5858 5856 5854 5852 5850 5848 5846 5843 5841 5839 5837 5836 5836 5836 5836 5837 5839 5841 5843 5846 5849 5851 5853 5855 5857 5858 5859 5861 5862 5863 5864 5864 5864 5864 5864 5863 5862 5861 5861 5859 5858 5857 5855 5853 5852 5850 5849 5847
5858 5857 5855 5854 5852 5850 5848 5847 5846 5842 5840 5839 5838 5837 5838 5838 5838 5839 5841 5844 5846 5848 5850 5852 5854 5855 5857 5859 5860 5861 5862 5862 5863 5863 5863 5862 5862 5861 5860 5858 5857 5856 5854 5852 5851 5849 5847 5845 5844
5856 5856 5854 5853 5852 5850 5849 5847 5846 5844 5842 5841 5840 5839 5839 5839 5840 5841 5843 5845 5847 5848 5850 5851 5853 5854 5856 5858 5859 5859 5860 5861 5861 5861 5861 5860 5860 5859 5858 5856 5855 5853 5851 5849 5848 5846 5844 5842 5840
5855 5855 5854 5852 5851 5850 5849 5848 5847 5845 5844 5842 5841 5840 5840 5841 5842 5842 5844 5845 5847 5848 5849 5851 5852 5854 5855 5856 5857 5858 5859 5859 5859 5859 5859 5858 5857 5857 5855 5854 5852 5850 5848 5846 5844 5842 5840 5837 5835
5853 5853 5853 5852 5851 5850 5848 5847 5848 5845 5844 5843 5842 5842 5841 5842 5842 5843 5844 5846 5846 5848 5849 5850 5851 5853 5854 5855 5856 5857 5857 5857 5857 5857 5856 5856 5855 5854 5852 5851 5849 5847 5845 5843 5840 5838 5835 5833 5830
5851 5850 5850 5850 5849 5848 5848 5847 5847 5845 5844 5843 5843 5843 5842 5842 5843 5843 5844 5845 5846 5847 5848 5849 5850 5851 5852 5853 5854 5855 5855 5855 5855 5854 5854 5853 5852 5851 5849 5848 5846 5844 5842 5839 5836 5833 5831 5828 5825
5848 5848 5847 5847 5847 5846 5847 5846 5846 5845 5844 5843 5843 5842 5842 5842 5843 5843 5844 5845 5846 5846 5847 5848 5849 5849 5850 5851 5852 5852 5852 5852 5852 5851 5851 5850 5849 5847 5846 5844 5842 5840 5837 5834 5832 5829 5825 5822 5819
5845 5845 5844 5844 5844 5844 5844 5847 5845 5844 5843 5843 5843 5842 5842 5842 5842 5842 5843 5844 5844 5845 5845 5846 5847 5847 5848 5849 5849 5849 5849 5849 5848 5848 5847 5846 5845 5843 5842 5840 5837 5835 5832 5829 5826 5823 5820 5816 5813
5841 5841 5841 5842 5841 5841 5841 5846 5842 5842 5841 5841 5841 5841 5841 5841 5841 5841 5841 5842 5842 5843 5843 5844 5844 5845 5845 5845 5846 5846 5846 5845 5845 5844 5843 5842 5840 5839 5837 5834 5832 5829 5827 5823 5820 5817 5813 5810 5806